www.pogodaiklimat.ru

Погода и климат >> Архив погоды >> Иран >> Khark


ПОГОДА в Khark

  • Прогноз погоды в Khark
  • Монитор погоды в Khark
  • Климат города

АРХИВ ПОГОДЫ в Khark

Время (UTC), дата Ветер
(напр.,м/с)
 
Видим.   Явления Облачность Т
(С)
Тd
(С)
f
(%)
Тe
(С)
Тes
(С)
Комфортность P
(гПа)
Po
(гПа)
Тmin
(С)
Tmax
(С)
R
(мм)
R24
(мм)
S
(см)
09 11.08 ЮЗ 3 10 км ясно +40.8 +27.4 47 +58 +75 опасность
перегрева
998.8 998.3
12 11.08 ЮЗ 6 10 км ясно +38.5 +30.6 64 +66 +70 опасность
перегрева
997.5 997.0
15 11.08 З 3 8000 м мгла ясно +36.1 +31.7 78 +69 +69 опасность
перегрева
998.1 997.6 +41.1
03 12.08 штиль 0 8000 м дымка 9/5 1200 м
[Sc Ac As]
+32.2 +29.3 85 +57 +57 опасность
перегрева
999.3 998.8 +31.8
06 12.08 СЗ 3 10 км 8/4 1200 м
[Sc Ac As]
+36.0 +31.4 77 +68 +71 опасность
перегрева
1000.8 1000.3
09 12.08 З 3 10 км ясно +38.9 +28.2 55 +59 +76 опасность
перегрева
1000.0 999.5
12 12.08 ЮЗ 4 10 км ясно +38.4 +30.6 65 +67 +73 опасность
перегрева
998.6 998.1
15 12.08 З 3 10 км ясно +36.5 +28.0 62 +57 +57 опасность
перегрева
997.9 997.4 +39.5
03 13.08 штиль 0 10 км 8/1 1200 м
[Sc Ac As]
+31.9 +27.6 78 +51 +52 опасность
перегрева
998.7 998.2 +30.1
06 13.08 штиль 0 10 км 1/0
[Ac As]
+39.6 +23.5 40 +50 +66 опасность
перегрева
999.5 999.0
09 13.08 ЮЗ 3 10 км ясно +40.1 +26.9 48 +57 +74 опасность
перегрева
999.1 998.6
12 13.08 ЮЗ 4 10 км ясно +39.2 +30.2 61 +66 +73 опасность
перегрева
998.0 997.5
15 13.08 ЮЗ 2 8000 м мгла 1/0
[Ac trans]
+36.6 +31.0 73 +67 +67 опасность
перегрева
997.6 997.1 +40.9
03 14.08 штиль 0 5000 м дымка 8/0
[Ac As]
+32.9 +31.0 90 +64 +64 опасность
перегрева
999.6 999.1 +32.1
06 14.08 штиль 0 6000 м мгла 5/1 1200 м
[Sc Ac As]
+39.1 +22.8 39 +48 +59 опасность
перегрева
1000.3 999.8
09 14.08 Ю 3 7000 м мгла 1/1 1200 м
[Sc]
+40.9 +25.7 43 +55 +70 опасность
перегрева
999.8 999.3
12 14.08 Ю 5 8000 м мгла ясно +38.5 +31.1 66 +68 +73 опасность
перегрева
998.8 998.3
15 14.08 ЮВ 4 6000 м дымка 1/1 1200 м
[Sc]
+36.0 +32.5 82 +73 +73 опасность
перегрева
999.1 998.6 +42.3
03 15.08 штиль 0 6000 м дымка 8/3 1200 м
[Sc Ac As]
+33.7 +31.4 88 +66 +67 опасность
перегрева
1000.3 999.8 +32.4
06 15.08 ЮВ 3 6000 м дымка 6/3 1200 м
[Sc Ac As]
+35.3 +31.7 82 +69 +74 опасность
перегрева
1001.5 1001.0
09 15.08 ЮВ 4 7000 м мгла 4/0
[Ac As]
+38.1 +29.7 63 +64 +74 опасность
перегрева
1001.3 1000.8
12 15.08 Ю 4 8000 м мгла 3/0
[Ac As]
+38.8 +28.6 57 +61 +66 опасность
перегрева
999.7 999.2
15 15.08 Ю 3 10 км 3/0
[Ac As]
+35.9 +31.0 76 +66 +66 опасность
перегрева
999.8 999.3 +39.6
03 16.08 штиль 0 6000 м дымка 3/3 600 м
[St]
+32.2 +31.1 94 +63 +64 опасность
перегрева
1002.0 1001.5 +31.7
06 16.08 ЮВ 5 10 км 1/1 600 м
[St]
+36.7 +30.2 69 +64 +70 опасность
перегрева
1003.7 1003.2
09 16.08 ЮВ 5 7000 м пыль ясно +37.6 +30.2 66 +65 +75 опасность
перегрева
1002.6 1002.1
12 16.08 ЮЗ 5 10 км ясно +37.9 +30.8 67 +67 +72 опасность
перегрева
1001.3 1000.8
15 16.08 З 2 10 км ясно +35.5 +30.5 75 +64 +64 опасность
перегрева
1001.6 1001.1 +39.2
03 17.08 ЮВ 2 7000 м дымка ясно +33.6 +29.6 80 +59 +60 опасность
перегрева
1001.9 1001.4 +31.5
06 17.08 ЮВ 3 5000 м пыль 3/3 600 м
[St]
+36.5 +30.3 71 +65 +72 опасность
перегрева
1003.4 1002.9
09 17.08 ЮВ 4 7000 м пыль ясно +37.4 +30.1 66 +64 +77 опасность
перегрева
1002.7 1002.2
12 17.08 ЮЗ 3 10 км ясно +37.5 +30.7 68 +66 +74 опасность
перегрева
1000.9 1000.4
15 17.08 З 2 10 км ясно +35.5 +30.6 76 +65 +65 опасность
перегрева
1000.1 999.6 +39.1
03 18.08 З 2 6000 м дымка 3/0
[Ac As]
+33.8 +30.4 82 +62 +62 опасность
перегрева
1001.0 1000.5 +32.4
06 18.08 З 2 6000 м мгла ясно +36.9 +30.8 71 +66 +79 опасность
перегрева
1002.6 1002.1

 

Местоположение метеостанции Khark (Иран): широта 29.26 долгота 50.32 высота над уровнем моря 3 м.

В архиве по умолчанию представлена погода в Khark за последнюю неделю. Архивные данные за месяц целиком и за предыдущие месяцы, начиная с января 2011 года, Вы можете получить, выбрав интересующий диапазон дат из раскрывающегося списка и нажав кнопку "Ввод!".

Внимание! Время в таблицах - всемирное. Для получения местного времени необходимо прибавить поправку, которая в Khark равна 3.5 ч.

Смотрите также архив погоды в соседних городах и на ближайших метеорологических станциях:

Погода в Bushehr Airport (Иран) (59 км)
Погода в Bushehr (Иран) (62 км)
Погода в Gach Saran (Иран) (137 км)
Погода в Nuwasib (Кувейт) (175 км)
Погода в Umm-Al-Maradim (Кувейт) (175 км)
Погода в Omidieh (Иран) (179 км)
Погода в Fao (Ирак) (193 км)
Погода в Bubiyan (Кувейт) (196 км)
Погода в Yasuj (Иран) (198 км)
Погода в Failaka Island (Кувейт) (199 км)

Пояснения к столбцам:

Ветер - указаны скорость ветра в м/с - средняя за 10 мин, порывы в срок и между сроками (в фигурных скобках) и направление, откуда дует ветер: С - северный, СВ - северо-восточный, В - восточный, ЮВ - юго-восточный, Ю - южный, ЮЗ - юго-западный, З - западный, СЗ - северо-западный.
Видимость - горизонтальная дальность видимости в метрах или километрах. При видимости от 1 до 10 км при отсутствии осадков обычно наблюдается дымка, при ухудшении видимости до 1 км и менее - туман. В сухую погоду видимость может ухудшаться дымом, пылью или мглою.
Явления - указаны атмосферные явления, наблюдавшиеся в срок или в последний час перед сроком; фигурными скобками обозначены явления, наблюдавшиеся между сроками (за 1-3 часа до срока); квадратными скобками обозначены град или гололедные отложения с указанием их диаметра в мм.
Облачность - указаны через наклонную черту общая и нижняя облачность в баллах и высота нижней границы облаков в метрах; квадратными скобками обозначены формы облаков: Ci - перистые, Cs - перисто-слоистые, Cc - перисто-кучевые, Ac - высококучевые, As - высокослоистые, Sc - слоисто-кучевые, Ns - слоисто-дождевые, Cu - кучевые, Cb - кучево-дождевые. Подробнее классификацию облаков см. в Атласе облаков (PDF).
T - Температура воздуха - температура, измеренная на высоте 2 м над землей.
Td - Температура точки росы - температура, при понижении до которой содержащийся в воздухе водяной пар достигнет насыщения.
f - Относительная влажность воздуха - влажноcть воздуха, измеренная на высоте 2 м над землей.
Te - Эффективная температура - температура, которую ощущает одетый по сезону человек в тени. Характеристика душности погоды. При расчете учитывается влияние влажности воздуха и скорости ветра на теплоощущения человека.
Tes - Эффективная температура на солнце - температура, которую ощущает человек, с поправкой на солнечный нагрев. Характеристика знойности погоды. Зависит от высоты солнца над горизонтом, облачности и скорости ветра. Ночью, в пасмурную погоду, а также при ветре 12 м/с и более поправка равна нулю.
P - Атмосферное давление - приведенное к уровню моря атмосферное давление.
Po - Атмосферное давление - измеренное на уровне метеостанции атмосферное давление.
Tmin - Минимальная температура - минимум температуры воздуха на высоте 2 м над землей.
Tmax - Максимальная температура - максимум температуры воздуха на высоте 2 м над землей.
R - Количество осадков - Количество выпавших осадков за период времени, мм. При наведении курсора мыши на число - период времени, за который выпало указанное количество осадков.
R24 - Количество осадков - Количество выпавших осадков за 24 часа, мм.
S - Снежный покров - Высота снежного покрова, см. При наведении курсора мыши на число - состояние снежного покрова и степень покрытия местности в баллах.